Tracking 28790 objects as of 19-Apr-2024
HD Live streaming from Space Station
objects crossing your sky now

DELTA 1 DEB

Track DELTA 1 DEB now!
10-day predictions


NORAD ID: 21317
Int'l Code: 1975-052AK
Perigee: 969.3 km
Apogee: 1,306.3 km
Inclination: 100.1 °
Period: 107.9 minutes
Semi major axis: 7508 km
RCS: 0.0147 m2 (small)
Launch date: June 12, 1975
Source: United States (US)
Launch site: AIR FORCE WESTERN TEST RANGE (AFWTR)

Note: This is SATELLITE DEBRIS
Your satellite tracking list
Your tracking list is empty




NASA's NSSDC Master Catalog

Two Line Element Set (TLE):
1 21317U 75052AK  24109.31372296  .00004665  00000-0  81871-2 0  9990
2 21317 100.0985  43.5963 0224391  54.3459  93.9932 13.34289608574937
Source of the keplerian elements: AFSPC